Weather in Uzytamak

Russia / Republic of Bashkortostan     54°38′45″N   55°33′19″E
temp.,
°C
wind,
m/s
gust,
m/s
humid.,
%
clouds,
%
prec.,
mm/h
press.,
hPa
HPBL,
m
5 december, sun
sun523:00+2ssw101897100 0.8 10111001
02:00+1ssw81797100 0.8 1011882
05:00+1sw5999100 2.6 1012594
08:000wsw3796100 2.8 1012568
11:00−1wsw3692100 3.3 1014529
14:00−1w4686100 0.0 1015610
17:00−2w3590100 0.0 1017224
20:00−3w2591100 0.0 1018256
6 december, mon
mon623:00−3wnw2488100 0.0 1018293
02:00−3wnw2387100 0.0 1018320
05:00−3nw3488100 0.0 1019395
08:00−4n468996 0.1 1020513
11:00−6nnw457984 0.1 1023567
14:00−6nw457489 0.0 1024625
17:00−7nnw35735 0.0 1026553
20:00−8nnw34735 0.0 1028449
7 december, tue
tue723:00−9nnw23755 0.0 1030369
02:00−9nnw227863 0.0 1031294
05:00−10nnw228012 0.0 1032229
08:00−10n128253 0.0 1033168
11:00−10n11795 0.0 1034205
14:00−9ene11745 0.0 1035323
17:00−9e11845 0.0 103659
20:00−9ese239091 0.0 1036167
8 december, wed
wed823:00−10se2385100 0.0 1036144
02:00−9ese348083 0.0 1036156
05:00−9se358099 0.0 1035166
08:00−8se3776100 0.0 1034194
11:00−7sse51370100 0.0 1034311
14:00−5s61378100 0.0 1033330
17:00−4s61488100 0.0 1032353
20:00−4s61493100 0.0 1032373
9 december, thu
thu923:00−4s61491100 0.0 1032354
02:00−4s51391100 0.0 1032318
05:00−4s51191100 0.0 1032289
08:00−4s51188100 0.0 1032276
11:00−3s51284100 0.0 1032303
14:00−2sse51379100 0.0 1032336
17:00−3sse41278100 0.0 1032287
20:00−3sse31079100 0.0 1031211